Location: Puketoi
(40.5833°S, 176.0167°E)
Time: 16:24:16
(UTC+00:00)

PAYLOAD A - Pass Details

Date: 26 September 2023
Orbit: 691 x 830 km, 98.5° (Epoch: 10 December)

Event Time Altitude Azimuth Distance (km) Brightness Sun altitude
Exits shadow 13:26:45 13° 132° (SE) 2,229 6.9 -44.4°
Drops below altitude 10° 13:28:27 10° 150° (SSE) 2,465 7.2 -44.2°
Sets 13:32:02 0° 174° (S) 3,412 8.0 -43.9°
